THORAD AGENA D DEB, 42506

Orbit data source: Space-Track

THORAD AGENA D DEB, 42506 is space debris in SSO originally from a launch on Wed, 08 Apr 1970 UTC launched from the Air Force Western Test Range (AFWTR). Debris objects in space refer to the collection of defunct objects orbiting the Earth. Examples of debris include non-operational satellites, rocket bodies, and fragments generated from explosions, collisions, or faulty payload assembly.

Loading next visibility...
Identifier
42506, 1970-025RL
Orbit
SSO
Country
Flag of USUS
Related business
Manufacturer
Unknown
Mission
Spacecraft
Bus & Motor
Unknown
Mass
Unknown
Launch date (UTC)
1970-04-08 (56 years ago)
Launch vehicle
Unknown
Launch site
Air Force Western Test Range (AFWTR)
Object type
Payload
Rocket body
Debris
Shape & HBR
Unknown shape, 0.1 m
Radar Cross Section
Small (<0.1 m²)

Expand to show TLE details & history
Last TLE update: 4 days ago

TLE from 4 days ago
0 THORAD AGENA D DEB
1 42506U 70025RL  26119.44330699  .00000406  00000-0  41954-3 0  9994
2 42506  99.5577 194.5186 0050770  81.5647 279.1256 13.81567922276152
Epoch: 2026-04-29T10:38Z
TLE epoch observation values (Epoch: 2026-04-29T10:38:21.723Z)
Latitude
-0.00003°
Longitude
177.5239°
Altitude
955.441 km
Speed
7.377 km/s
True Right ascension
12h 58m 04s
True Declination
0° 00' 00"
Sunlit
Object was in full shadow at epoch
Visualization orbit readout
Latitude
Unknown
Longitude
Unknown
Altitude
Unknown
Speed
Unknown
Apparent Right ascension
Unknown
Apparent Declination
Unknown
Sunlit
N/A
Visualization observer readout
Local Sidereal Time
17:31:24
Azimuth
Unknown
Elevation
Unknown
Doppler factor
Unknown
Orbital elements
Apogee altitude
992.816 km
Perigee altitude
918.349 km
Semi-major axis
7,333.72 km
Eccentricity
0.00508
Inclination
99.5577°
RAAN
194.5186°
Arg. of periapsis
81.5647°
True anomaly
278.55061°
Mean anomaly
279.1256°
Eccentric anomaly
278.83816°
Mean motion
3.45586 °/min
Orbital period
104.17 mins
BSTAR
0.00041954

Documentation

Showing up to 5 results
|